Satellite: RS-30
Catalog number: 32953
Epoch time:      12202.69241536
Element set:     978
Inclination:      082.5024 deg
RA of node:       274.3053 deg
Eccentricity:    0.0017730
Arg of perigee:   231.8829 deg
Mean anomaly:     128.0659 deg
Mean motion:   12.43025705 rev/day
Decay rate:        1.0e-07 rev/day^2
Epoch rev:           18872
Checksum:              286

Satellite: TACSAT-3
Catalog number: 35001
Epoch time:      12121.72616188
Element set:    0001
Inclination:      040.4259 deg
RA of node:       351.8840 deg
Eccentricity:    0.0007146
Arg of perigee:   275.2650 deg
Mean anomaly:     085.0693 deg
Mean motion:   16.45157000 rev/day
Decay rate:  1.5204951e-01 rev/day^2
Epoch rev:           16699
Checksum:              280

Satellite: PHARMSAT
Catalog number: 35002
Epoch time:      12202.45849120
Element set:     998
Inclination:      040.4506 deg
RA of node:       212.4054 deg
Eccentricity:    0.0008134
Arg of perigee:   137.6601 deg
Mean anomaly:     222.4866 deg
Mean motion:   15.97548690 rev/day
Decay rate:    2.16816e-03 rev/day^2
Epoch rev:           17962
Checksum:              292

Satellite: METEOR-M
Catalog number: 35865
Epoch time:      12202.78604452
Element set:     608
Inclination:      098.6527 deg
RA of node:       256.4783 deg
Eccentricity:    0.0002083
Arg of perigee:   337.0049 deg
Mean anomaly:     023.1033 deg
Mean motion:   14.21865748 rev/day
Decay rate:       -3.2e-07 rev/day^2
Epoch rev:           14737
Checksum:              292

Satellite: RS-38
Catalog number: 35869
Epoch time:      12202.73183747
Element set:     616
Inclination:      098.6479 deg
RA of node:       256.4151 deg
Eccentricity:    0.0004164
Arg of perigee:   326.1923 deg
Mean anomaly:     033.8987 deg
Mean motion:   14.22079280 rev/day
Decay rate:        3.8e-07 rev/day^2
Epoch rev:           14738
Checksum:              328

Satellite: JUGNU
Catalog number: 37839
Epoch time:      12201.18215463
Element set:    0190
Inclination:      019.9616 deg
RA of node:       164.3996 deg
Eccentricity:    0.0018685
Arg of perigee:   213.9934 deg
Mean anomaly:     145.9273 deg
Mean motion:   14.12067822 rev/day
Decay rate:       6.20e-06 rev/day^2
Epoch rev:           03977
Checksum:              312

Satellite: SRMSAT
Catalog number: 37841
Epoch time:      12201.20948642
Element set:    0191
Inclination:      019.9720 deg
RA of node:       169.7497 deg
Eccentricity:    0.0012278
Arg of perigee:   183.0207 deg
Mean anomaly:     177.0151 deg
Mean motion:   14.10149976 rev/day
Decay rate:       2.64e-06 rev/day^2
Epoch rev:           03972
Checksum:              293

Satellite: RAX-2
Catalog number: 37853
Epoch time:      12202.84965708
Element set:     235
Inclination:      101.7119 deg
RA of node:       258.3665 deg
Eccentricity:    0.0246310
Arg of perigee:   254.8248 deg
Mean anomaly:     102.5566 deg
Mean motion:   14.80220244 rev/day
Decay rate:      1.301e-05 rev/day^2
Epoch rev:            3937
Checksum:              284

Satellite: AUBIESAT
Catalog number: 37854
Epoch time:      12201.84944470
Element set:    0244
Inclination:      101.7104 deg
RA of node:       257.2007 deg
Eccentricity:    0.0246774
Arg of perigee:   256.6686 deg
Mean anomaly:     100.6849 deg
Mean motion:   14.80618884 rev/day
Decay rate:      2.778e-05 rev/day^2
Epoch rev:           03922
Checksum:              313

Satellite: HRBE
Catalog number: 37855
Epoch time:      12201.86639046
Element set:    0239
Inclination:      101.7137 deg
RA of node:       257.1720 deg
Eccentricity:    0.0247351
Arg of perigee:   257.0429 deg
Mean anomaly:     100.3016 deg
Mean motion:   14.80464264 rev/day
Decay rate:      2.438e-05 rev/day^2
Epoch rev:           03922
Checksum:              276

Satellite: RS-39
Catalog number: 38051
Epoch time:      12202.89467069
Element set:     532
Inclination:      051.6351 deg
RA of node:       359.1587 deg
Eccentricity:    0.0014876
Arg of perigee:   155.4714 deg
Mean anomaly:     000.3815 deg
Mean motion:   15.24794552 rev/day
Decay rate:      6.939e-05 rev/day^2
Epoch rev:            2711
Checksum:              315

Satellite: E-STAR
Catalog number: 38079
Epoch time:      12202.51230909
Element set:     365
Inclination:      069.4863 deg
RA of node:       239.4126 deg
Eccentricity:    0.0736428
Arg of perigee:   205.9120 deg
Mean anomaly:     150.3066 deg
Mean motion:   14.16908180 rev/day
Decay rate:     2.3081e-04 rev/day^2
Epoch rev:            2230
Checksum:              277

Satellite: GOLIAT
Catalog number: 38085
Epoch time:      12202.52724245
Element set:     336
Inclination:      069.4929 deg
RA of node:       239.7500 deg
Eccentricity:    0.0740400
Arg of perigee:   206.2396 deg
Mean anomaly:     149.9420 deg
Mean motion:   14.15906229 rev/day
Decay rate:     2.3495e-04 rev/day^2
Epoch rev:            2229
Checksum:              295

